Weather reports worldwide

Advertisment
Braemar, United Kingdom (99089): temperature & dewpoint: 10.07.2018 23:00:00 - 16.07.2018 23:00:00 (BST)Braemar, United Kingdom (99089): temperature -20cm & temperature -100cm: 10.07.2018 23:00:00 - 16.07.2018 23:00:00 (BST)Braemar, United Kingdom (99089): precipitation: 10.07.2018 23:00:00 - 16.07.2018 23:00:00 (BST)
Date & Time tt [°C] td [°C] tt -20cm [°C] tt -100cm [°C] rr [mm]
16.07.2018 23:00:00 - - - - -
16.07.2018 22:00:00 - - - - -
16.07.2018 21:00:00 15,4 7,8 - - 0,0
16.07.2018 20:00:00 16,3 7,2 - - 0,0
16.07.2018 19:00:00 18,3 9,1 - - 0,0
16.07.2018 18:00:00 17,8 8,6 - - 0,0
16.07.2018 17:00:00 18,7 7,3 - - 0,0
16.07.2018 16:00:00 18,0 8,6 - - 0,0
16.07.2018 15:00:00 18,7 8,7 - - 0,0
16.07.2018 14:00:00 18,5 9,0 - - 0,0
16.07.2018 13:00:00 16,6 11,2 - - 0,0
16.07.2018 12:00:00 15,7 12,0 - - 0,0
16.07.2018 11:00:00 16,6 12,8 - - 0,0
16.07.2018 10:00:00 16,1 13,0 17,2 14,7 0,0
16.07.2018 09:00:00 15,1 12,8 - - 0,0
16.07.2018 08:00:00 16,3 14,1 - - 0,0
16.07.2018 07:00:00 16,2 14,1 - - 0,0
16.07.2018 06:00:00 15,9 14,0 - - 0,0
16.07.2018 05:00:00 16,0 14,0 - - 0,0
16.07.2018 04:00:00 16,1 14,1 - - 0,0
16.07.2018 03:00:00 15,7 14,0 - - 0,0
16.07.2018 02:00:00 15,9 14,3 - - 0,0
16.07.2018 01:00:00 15,9 14,4 - - 0,0
16.07.2018 00:00:00 16,3 14,3 - - 0,0
15.07.2018 23:00:00 16,4 14,5 - - 0,0
15.07.2018 22:00:00 16,9 14,1 - - 0,0
15.07.2018 21:00:00 17,4 14,0 - - 0,0
15.07.2018 20:00:00 17,8 14,2 - - 0,0
15.07.2018 19:00:00 18,4 14,5 - - 0,0
15.07.2018 18:00:00 18,1 14,8 - - 0,0
15.07.2018 17:00:00 18,8 14,5 - - 0,0
15.07.2018 16:00:00 18,5 14,3 - - 0,0
15.07.2018 15:00:00 19,3 14,6 - - 0,2
15.07.2018 14:00:00 17,4 14,9 - - 0,0
15.07.2018 13:00:00 18,6 14,4 - - 0,0
15.07.2018 12:00:00 18,7 14,2 - - 0,0
15.07.2018 11:00:00 19,4 13,9 - - 0,0
15.07.2018 10:00:00 18,8 14,4 17,2 14,7 0,0
15.07.2018 09:00:00 17,5 14,2 - - 0,0
15.07.2018 08:00:00 17,7 14,4 - - 0,0
15.07.2018 07:00:00 16,8 13,8 - - 0,0
15.07.2018 06:00:00 16,6 13,7 - - 0,0
15.07.2018 05:00:00 16,6 13,4 - - 0,0
15.07.2018 04:00:00 16,6 13,2 - - 0,0
15.07.2018 03:00:00 16,5 13,0 - - 0,0
15.07.2018 02:00:00 16,5 12,8 - - 0,0
15.07.2018 01:00:00 16,7 12,7 - - 0,0
15.07.2018 00:00:00 17,2 12,7 - - 0,0
14.07.2018 23:00:00 17,3 12,7 - - 0,0
14.07.2018 22:00:00 17,6 12,8 - - 0,0
14.07.2018 21:00:00 18,3 13,0 - - 0,0
14.07.2018 20:00:00 18,7 12,6 - - 0,0
14.07.2018 19:00:00 20,2 12,2 - - 0,0
14.07.2018 18:00:00 20,9 12,0 - - 0,0
14.07.2018 17:00:00 22,1 12,2 - - 0,0
14.07.2018 16:00:00 21,0 11,6 - - 0,0
14.07.2018 15:00:00 20,5 11,5 - - 0,0
14.07.2018 14:00:00 20,4 11,1 - - 0,0
14.07.2018 13:00:00 18,3 11,3 - - 0,0
14.07.2018 12:00:00 18,3 10,2 - - 0,0
14.07.2018 11:00:00 18,1 10,8 - - 0,0
14.07.2018 10:00:00 17,1 10,8 16,7 14,9 0,0
14.07.2018 09:00:00 15,7 10,2 - - 0,0
14.07.2018 08:00:00 12,6 10,7 - - 0,0
14.07.2018 07:00:00 10,7 9,9 - - 0,0
14.07.2018 06:00:00 8,2 7,9 - - 0,0
14.07.2018 05:00:00 7,2 6,8 - - 0,0
14.07.2018 04:00:00 7,8 7,3 - - 0,0
14.07.2018 03:00:00 8,2 7,6 - - 0,0
14.07.2018 02:00:00 9,0 8,1 - - 0,0
14.07.2018 01:00:00 10,0 8,5 - - 0,0
14.07.2018 00:00:00 12,4 10,2 - - 0,0
13.07.2018 23:00:00 12,9 10,6 - - 0,0
13.07.2018 22:00:00 13,9 10,7 - - 0,0
13.07.2018 21:00:00 16,8 11,7 - - 0,0
13.07.2018 20:00:00 18,4 11,1 - - 0,0
13.07.2018 19:00:00 20,1 12,7 - - 0,0
13.07.2018 18:00:00 18,9 11,8 - - 0,0
13.07.2018 17:00:00 19,4 12,7 - - 0,0
13.07.2018 16:00:00 18,3 12,1 - - 0,0
13.07.2018 15:00:00 17,6 12,2 - - 0,0
13.07.2018 14:00:00 17,7 12,2 - - 0,0
13.07.2018 13:00:00 17,4 12,6 - - 0,0
13.07.2018 12:00:00 16,5 12,2 - - 0,0
13.07.2018 11:00:00 15,6 12,3 - - 0,0
13.07.2018 10:00:00 15,0 12,2 17,2 15,0 0,0
13.07.2018 09:00:00 13,7 11,8 - - 0,0
13.07.2018 08:00:00 13,1 12,2 - - 0,0
13.07.2018 07:00:00 12,6 11,1 - - 0,0
13.07.2018 06:00:00 12,2 11,7 - - 0,0
13.07.2018 05:00:00 11,8 11,5 - - 0,0
13.07.2018 04:00:00 12,1 11,9 - - 0,2
13.07.2018 03:00:00 12,0 11,7 - - 0,2
13.07.2018 02:00:00 12,0 11,7 - - 0,0
13.07.2018 01:00:00 12,0 11,6 - - 0,2
13.07.2018 00:00:00 12,3 11,8 - - 0,8
12.07.2018 23:00:00 12,5 11,9 - - 0,2
12.07.2018 22:00:00 12,8 12,2 - - 0,4
12.07.2018 21:00:00 13,1 11,9 - - 0,0
12.07.2018 20:00:00 13,5 12,2 - - 0,0
12.07.2018 19:00:00 13,7 12,1 - - 0,0
12.07.2018 18:00:00 15,5 11,9 - - 0,0
12.07.2018 17:00:00 15,7 12,0 - - 0,0
12.07.2018 16:00:00 15,6 11,8 - - 0,0
12.07.2018 15:00:00 15,7 11,8 - - 0,0
12.07.2018 14:00:00 15,3 12,0 - - 0,0
12.07.2018 13:00:00 15,5 11,8 - - 0,0
12.07.2018 12:00:00 16,0 12,5 - - 0,0
12.07.2018 11:00:00 14,1 11,7 - - 0,0
12.07.2018 10:00:00 13,3 11,4 17,5 15,0 0,2
12.07.2018 09:00:00 12,6 11,2 - - 0,2
12.07.2018 08:00:00 12,4 11,2 - - 0,0
12.07.2018 07:00:00 11,8 11,2 - - 0,0
12.07.2018 06:00:00 11,7 11,3 - - 0,6
12.07.2018 05:00:00 11,8 11,5 - - 0,2
12.07.2018 04:00:00 11,7 11,4 - - 0,4
12.07.2018 03:00:00 12,0 11,6 - - 0,4
12.07.2018 02:00:00 12,1 11,6 - - 0,2
12.07.2018 01:00:00 12,4 11,4 - - 0,0
12.07.2018 00:00:00 12,5 11,4 - - 0,0
11.07.2018 23:00:00 12,9 11,9 - - 0,0
11.07.2018 22:00:00 12,9 11,8 - - 0,2
11.07.2018 21:00:00 13,9 11,8 - - 0,0
11.07.2018 20:00:00 14,3 12,2 - - 0,0
11.07.2018 19:00:00 14,7 12,6 - - 0,0
11.07.2018 18:00:00 14,8 13,0 - - 0,0
11.07.2018 17:00:00 15,0 13,4 - - 0,8
11.07.2018 16:00:00 16,6 13,8 - - 0,0
11.07.2018 15:00:00 16,5 13,8 - - 0,0
11.07.2018 14:00:00 15,9 13,3 - - 0,0
11.07.2018 13:00:00 16,4 13,8 - - 0,0
11.07.2018 12:00:00 16,4 13,1 - - 0,0
11.07.2018 11:00:00 15,7 14,0 - - 0,0
11.07.2018 10:00:00 15,3 14,0 17,9 15,2 0,0
11.07.2018 09:00:00 14,3 13,4 - - 0,0
11.07.2018 08:00:00 13,7 13,0 - - 0,2
11.07.2018 07:00:00 12,9 12,5 - - 0,0
11.07.2018 06:00:00 13,0 12,5 - - 0,0
11.07.2018 05:00:00 12,8 12,2 - - 0,0
11.07.2018 04:00:00 12,9 12,3 - - 0,2
11.07.2018 03:00:00 13,0 12,6 - - 0,2
11.07.2018 02:00:00 13,1 12,7 - - 0,0
11.07.2018 01:00:00 13,4 13,0 - - 0,0
11.07.2018 00:00:00 13,5 13,1 - - 0,2
10.07.2018 23:00:00 14,1 13,4 - - 0,0

tt = temperature
td = dewpoint
tt -20cm = temperature -20cm
tt -100cm = temperature -100cm
rr = precipitation

Next stations